Temp
61 61 60 60 60 60 60 60 60 61 61 61 61 61 61 61 62 80 78 88 90 72 74 93 92 93 96 90 94 94 76 72 76 79 82 91 88 94 97 90 92 93 91 92 93
60 60 60 60 60 60 60 60 60 60 61 61 61 61 61 61 73 80 87 81 75 74 88 90 87 91 87 88 89 84 76 76 86 87 85 89 88 89 88 88 88 90 93 92 92
60 60 60 60 60 60 59 59 60 60 60 60 60 60 60 64 77 87 75 75 75 77 94 95 94 91 84 87 87 85 77 84 86 89 90 88 88 91 87 83 89 86 90 89 89
60 60 60 60 60 60 59 59 60 60 60 60 60 60 60 76 68 87 75 75 74 91 91 90 89 84 82 80 87 80 86 87 88 90 88 86 90 86 88 88 94 93 93 91 87
60 60 60 60 60 59 59 59 59 59 59 59 60 60 71 74 77 94 76 76 85 88 86 85 84 84 79 84 85 82 85 89 90 89 88 91 87 86 87 93 95 95 93 90 89
59 60 60 60 59 59 59 59 58 58 59 59 60 59 68 62 90 94 95 89 90 87 85 86 85 89 84 83 83 86 86 87 88 87 89 86 86 87 89 93 91 91 90 90 89
58 59 59 59 59 59 59 59 58 58 59 60 60 66 66 69 90 96 96 92 92 88 84 88 89 85 87 81 89 86 79 84 86 87 85 89 81 82 90 91 89 89 89 89 90
58 58 58 59 59 59 59 59 58 59 60 60 61 66 61 83 88 83 87 89 95 95 92 93 94 87 83 87 84 78 79 72 82 86 87 86 71 84 90 89 86 88 89 89 87
58 58 58 58 59 59 58 58 59 60 61 63 62 65 65 84 77 87 93 86 92 93 94 95 91 82 82 74 71 75 67 71 76 87 86 84 75 84 90 88 86 87 88 89 88
57 57 57 57 58 58 57 57 61 61 66 71 74 65 74 73 85 89 93 91 86 86 84 84 82 74 76 72 59 66 69 73 72 81 85 80 78 84 87 87 86 86 87 87 87
57 57 56 57 57 57 58 66 68 63 67 67 70 71 81 88 90 88 93 87 85 81 71 77 69 66 70 74 75 75 74 73 79 85 79 77 78 82 86 86 85 86 86 86 85
57 56 57 56 57 57 60 57 66 71 60 72 73 77 81 87 78 83 93 79 77 69 76 72 66 74 78 78 75 74 72 72 79 84 81 79 77 82 84 84 85 85 85 86 84
56 56 56 56 56 57 59 61 73 76 60 66 74 72 75 81 75 78 85 82 75 69 71 67 72 78 77 75 73 73 71 72 73 80 82 78 73 77 83 86 88 89 88 88 82
56 55 55 55 53 65 64 74 78 77 52 61 69 75 78 79 71 86 89 82 76 70 73 72 79 77 74 73 76 68 79 78 76 72 64 78 60 73 79 80 85 86 86 85 83
55 56 55 55 58 58 66 72 78 71 38 74 75 90 83 73 78 77 89 83 72 73 74 70 74 74 73 75 80 74 82 78 77 71 69 69 63 69 78 76 81 84 87 85 83
55 55 55 58 59 65 70 72 68 48 39 66 83 76 74 73 75 85 79 84 83 76 77 75 84 81 79 83 83 84 79 78 76 71 59 67 65 66 72 77 81 85 86 84 84
55 56 55 63 57 70 70 61 44 39 65 65 73 76 73 71 71 73 71 69 68 62 64 73 75 82 85 78 83 80 72 60 55 56 55 70 66 68 78 83 83 84 86 84 84
54 54 56 62 67 66 59 45 35 51 54 76 77 75 68 74 71 71 71 66 73 71 67 64 62 76 84 79 75 76 71 62 49 52 58 71 61 70 83 86 87 87 86 85 83
52 57 55 59 66 62 47 33 41 50 64 62 68 63 68 72 74 70 69 70 73 75 64 65 66 82 83 85 82 75 68 77 65 68 62 66 71 79 82 82 84 85 83 80 81
52 50 54 63 64 53 39 35 48 57 60 61 53 62 55 68 68 69 68 75 73 78 80 73 64 79 82 85 84 78 81 65 67 52 50 62 66 68 73 77 81 80 80 80 80
49 40 54 66 61 43 33 41 49 58 58 53 53 54 56 55 64 69 69 76 80 78 79 77 71 73 80 75 73 74 72 72 70 67 56 53 62 75 76 80 78 79 81 79 79
45 35 56 63 39 37 35 46 50 53 58 55 55 54 52 57 56 58 68 74 84 82 72 77 71 64 72 82 84 79 74 73 63 59 66 65 63 82 81 83 83 81 81 81 81
39 41 53 57 34 34 45 46 50 51 52 52 51 54 56 53 50 61 66 80 84 80 75 75 66 60 65 75 79 73 76 76 73 70 63 59 64 82 83 83 84 82 82 81 81
40 36 45 45 44 42 43 44 45 54 54 55 52 54 49 49 57 55 62 74 84 84 74 74 68 63 61 68 74 68 73 76 71 63 64 66 70 76 79 80 83 84 82 82 81
43 41 47 38 39 40 41 43 43 42 54 56 52 50 48 45 50 56 58 55 67 73 75 73 62 69 72 76 76 74 72 73 71 71 65 69 71 76 80 81 84 85 84 83 82
41 42 49 45 48 44 40 42 44 48 50 49 46 53 51 46 51 48 52 54 55 61 73 73 62 68 67 74 75 72 74 74 74 74 72 73 72 83 86 86 85 84 84 83 82
53 52 48 43 44 40 42 44 44 48 53 56 53 50 47 50 57 59 60 58 58 56 58 67 67 63 59 71 71 65 73 74 74 77 76 69 75 83 83 84 85 83 85 84 84
MSLP
1018.55 1018.18 1017.85 1017.67 1017.52 1017.07 1016.65 1016.62 1016.67 1016.15 1015.57 1015.20 1014.62 1014.02 1013.32 1012.96 1012.36 1010.79 1009.22 1007.39 1007.17 1008.01 1008.34 1007.66 1007.51 1006.95 1006.31 1006.01 1005.33 1004.99 1004.59 1003.34 1002.42 1001.30 1000.42 1000.28 1000.10 1000.17 1000.33 1000.83 1001.41 1001.62 1002.41 1003.45 1004.20
1018.23 1018.07 1017.79 1017.61 1017.35 1017.10 1016.67 1016.54 1016.32 1015.84 1015.55 1015.07 1014.57 1013.88 1013.09 1012.65 1011.41 1008.54 1006.76 1006.75 1006.82 1007.20 1007.84 1006.86 1006.44 1006.07 1005.66 1005.18 1004.86 1004.49 1003.74 1002.87 1002.22 1001.34 1000.75 1000.47 1000.50 1000.52 1000.49 1000.34 1000.53 1001.05 1002.14 1003.18 1004.03
1018.05 1017.81 1017.53 1017.34 1017.05 1016.71 1016.35 1016.08 1015.91 1015.59 1015.23 1014.74 1014.20 1013.52 1012.72 1012.24 1009.79 1006.19 1005.92 1005.79 1006.01 1006.52 1006.55 1006.05 1005.64 1005.19 1004.99 1004.60 1004.04 1003.57 1002.78 1002.55 1002.11 1001.56 1001.12 1000.87 1000.58 1000.64 1000.19 1000.25 1000.40 1001.09 1001.67 1002.93 1003.82
1017.87 1017.55 1017.30 1017.15 1016.99 1016.74 1016.38 1016.06 1015.78 1015.31 1014.85 1014.32 1013.96 1013.16 1012.26 1011.35 1008.39 1005.86 1005.80 1005.98 1006.30 1006.12 1006.47 1005.70 1005.22 1004.76 1003.78 1003.52 1003.22 1002.91 1002.14 1001.74 1001.40 1001.30 1001.22 1000.88 1000.44 1000.49 1000.38 1000.47 1000.52 1000.93 1001.79 1002.51 1003.02
1017.77 1017.44 1017.23 1017.14 1016.89 1016.37 1015.95 1015.77 1015.41 1015.20 1014.74 1014.45 1013.91 1013.30 1012.05 1009.82 1006.75 1005.58 1006.08 1006.28 1006.42 1006.41 1005.81 1005.48 1004.59 1003.85 1002.85 1002.64 1002.57 1002.07 1001.44 1001.06 1000.92 1001.01 1001.11 1000.47 1000.10 1000.12 1000.15 1000.26 1000.49 1000.90 1001.64 1002.13 1002.64
1017.40 1017.02 1016.91 1016.73 1016.41 1015.97 1015.71 1015.39 1015.11 1014.73 1014.44 1014.02 1013.74 1013.37 1011.98 1008.78 1005.97 1005.46 1005.26 1005.99 1005.52 1005.80 1005.52 1005.01 1004.25 1003.57 1002.86 1002.31 1001.90 1001.43 1001.09 1000.60 1000.75 1000.66 1000.27 1000.02 999.80 999.89 999.95 1000.20 1000.61 1001.05 1001.50 1002.00 1002.38
1017.37 1017.04 1016.66 1016.29 1015.99 1015.65 1015.29 1014.80 1014.33 1013.87 1013.45 1013.34 1013.36 1012.86 1010.74 1006.63 1005.60 1004.40 1004.21 1004.47 1005.00 1004.95 1004.58 1004.34 1004.29 1003.80 1002.72 1002.09 1001.73 1001.32 1000.95 1000.51 1000.05 999.83 999.73 999.73 999.27 999.31 999.88 999.90 1000.21 1000.52 1000.91 1001.54 1002.08
1017.14 1016.72 1016.35 1016.03 1015.66 1015.29 1014.91 1014.50 1014.13 1013.80 1013.41 1013.09 1013.34 1012.71 1008.53 1005.91 1005.43 1005.16 1004.70 1004.26 1003.69 1003.62 1003.42 1003.51 1003.39 1003.31 1002.93 1002.54 1001.82 1001.34 1001.03 999.96 999.45 999.14 998.76 998.93 998.71 999.08 999.39 999.33 999.85 999.95 1000.33 1000.74 1001.43
1017.00 1016.55 1016.18 1015.82 1015.41 1015.06 1014.71 1014.23 1013.53 1013.02 1012.75 1012.62 1012.56 1011.12 1006.61 1003.95 1004.39 1003.14 1003.15 1003.06 1002.67 1002.67 1002.60 1002.91 1003.10 1002.86 1003.02 1002.77 1001.88 1000.99 1000.03 999.49 998.64 998.13 997.70 997.51 998.18 998.86 998.97 998.85 998.88 999.32 999.57 999.91 1000.44
1016.83 1016.44 1016.04 1015.65 1015.27 1014.88 1014.40 1013.60 1011.74 1012.19 1011.44 1011.21 1009.98 1009.27 1005.41 1002.34 1001.61 1001.73 1002.00 1002.17 1002.26 1002.38 1002.42 1002.62 1002.38 1002.30 1001.85 1001.74 1000.09 1000.14 999.35 998.77 998.01 997.41 996.68 997.30 997.63 998.03 998.17 998.26 998.28 998.49 998.56 998.93 999.87
1016.82 1016.40 1015.96 1015.52 1015.10 1014.66 1014.20 1012.12 1010.08 1009.90 1009.03 1006.39 1004.76 1003.08 1000.59 1000.48 1000.80 1000.45 1000.49 1001.09 1001.80 1001.75 1001.44 1001.99 1001.71 1000.53 1000.57 1000.23 1000.43 999.76 998.75 997.72 996.88 996.27 997.78 997.53 997.13 997.16 997.43 997.62 997.65 997.59 997.81 998.28 999.25
1016.44 1016.20 1015.90 1015.39 1014.87 1014.56 1014.34 1012.43 1009.05 1008.25 1006.30 1004.84 1003.46 1001.83 1001.38 1000.52 1000.00 999.84 999.71 1000.09 1000.52 1000.43 1000.99 1001.17 999.65 1000.10 1000.14 999.81 999.69 999.15 998.45 997.57 996.90 996.41 996.54 996.74 996.59 996.87 997.12 997.17 997.02 997.00 997.27 997.78 998.92
1016.11 1015.97 1015.65 1015.18 1014.61 1013.82 1012.54 1010.92 1009.50 1008.18 1006.08 1002.74 1001.30 1000.54 1000.53 1000.52 999.20 998.64 999.04 998.93 999.10 999.74 999.64 998.92 998.25 999.58 999.14 998.54 998.43 998.25 997.83 997.59 997.12 996.83 996.89 996.89 996.59 996.62 996.41 995.92 995.91 996.02 996.65 997.60 998.95
1015.55 1015.59 1015.49 1015.26 1014.55 1011.60 1009.88 1008.71 1008.20 1008.04 1005.44 999.49 997.73 996.44 998.19 999.39 997.37 997.91 997.36 998.11 998.29 998.10 998.77 997.72 998.15 997.69 997.70 997.09 997.30 997.00 997.20 997.06 996.95 997.24 997.08 997.22 996.24 996.15 996.07 995.51 995.10 995.51 996.09 997.11 998.59
1015.10 1015.04 1015.09 1015.28 1013.43 1011.74 1009.97 1008.86 1007.91 1007.85 1003.24 994.16 992.81 992.86 993.97 995.20 994.76 994.98 996.43 996.64 996.66 997.14 997.69 995.30 996.22 996.21 995.51 995.73 996.12 995.79 996.16 996.18 996.58 997.18 997.43 997.63 997.22 996.23 995.57 994.87 994.48 995.14 995.67 996.58 998.21
1014.58 1014.49 1014.62 1014.07 1013.34 1011.76 1010.62 1009.91 1009.00 1006.83 999.40 993.15 990.22 991.49 993.02 994.10 994.13 993.09 994.98 996.10 996.53 996.47 995.72 995.43 995.27 994.75 994.42 994.44 994.79 995.40 995.63 995.88 996.70 997.14 996.96 997.09 996.96 995.92 995.12 994.63 994.73 995.11 995.55 996.80 998.21
1014.01 1013.85 1014.01 1013.18 1011.73 1010.50 1010.23 1010.26 1008.38 1003.36 996.79 992.72 990.77 991.20 992.05 992.44 993.61 993.93 994.14 994.84 994.46 995.04 994.04 994.48 993.85 993.53 993.56 993.50 993.69 994.42 995.07 995.71 996.69 996.98 996.59 996.64 996.18 995.13 994.46 994.46 994.65 995.23 995.88 997.02 998.39
1013.33 1013.26 1012.85 1012.43 1011.91 1011.11 1011.37 1010.56 1006.60 1000.30 997.65 992.24 991.40 991.25 991.46 991.72 992.07 992.80 992.61 993.30 993.62 993.28 993.42 993.09 992.47 992.05 991.76 991.99 992.50 993.04 994.52 995.15 995.81 996.34 996.13 995.51 995.03 994.04 993.97 994.08 994.68 995.46 996.26 997.38 998.55
1012.80 1012.28 1011.89 1011.65 1011.21 1011.12 1011.40 1009.36 1004.85 1001.59 998.04 996.46 994.02 992.86 991.10 991.27 990.78 991.90 991.51 991.09 991.38 991.66 991.76 991.52 990.84 991.20 991.25 991.28 991.91 992.46 993.57 994.90 995.70 995.73 995.49 995.03 994.57 993.92 993.83 994.19 994.63 995.27 996.47 997.61 998.84
1012.40 1011.82 1010.69 1010.40 1010.41 1011.03 1010.65 1008.09 1004.42 1002.59 1000.05 998.81 996.95 994.82 993.35 991.09 990.72 990.41 990.35 989.52 989.98 990.68 991.41 990.53 990.48 990.04 990.07 990.76 991.10 991.74 993.20 994.48 995.34 995.61 995.40 994.60 993.54 992.78 993.58 993.90 994.35 995.45 996.66 997.88 999.02
1012.31 1011.65 1009.67 1009.54 1009.77 1010.79 1009.02 1006.65 1004.66 1003.65 1002.45 1001.52 999.57 997.78 996.29 994.68 992.17 989.62 989.53 988.80 988.83 989.51 990.70 990.53 989.97 989.29 989.21 989.18 989.97 991.65 992.04 993.24 994.74 995.18 995.02 994.64 993.34 992.37 993.06 993.65 994.41 995.45 996.58 997.94 998.91
1012.17 1011.52 1008.91 1008.83 1010.25 1009.96 1008.69 1006.92 1006.05 1004.54 1003.49 1002.34 1001.41 1000.31 999.07 996.60 994.25 992.03 988.59 987.96 987.22 988.39 989.09 989.24 989.50 989.32 988.16 988.66 989.90 990.90 991.74 992.53 993.70 994.42 994.33 993.85 993.59 993.01 993.17 993.64 994.37 995.40 996.52 997.94 998.77
1011.95 1010.89 1009.03 1008.55 1009.41 1009.35 1008.17 1007.10 1005.90 1004.56 1003.30 1002.52 1002.16 1001.55 1000.06 998.74 996.61 992.65 989.97 987.73 987.50 987.42 987.72 989.12 989.61 989.39 988.56 988.41 989.10 990.34 991.27 992.04 992.98 993.84 993.72 993.63 992.95 992.80 993.03 993.49 994.04 994.80 996.09 997.79 998.50
1012.41 1010.99 1010.01 1010.17 1009.54 1008.93 1007.80 1006.48 1005.32 1004.52 1003.08 1002.32 1002.64 1002.16 1001.91 1000.16 998.03 994.67 992.00 988.95 987.15 986.96 987.70 988.98 988.95 989.00 987.86 987.51 988.61 989.70 990.55 991.24 992.16 992.71 993.24 992.82 992.28 992.22 992.97 993.30 993.88 994.47 995.55 996.96 998.07
1012.03 1010.51 1009.54 1009.36 1009.33 1009.02 1008.57 1007.16 1005.50 1004.64 1002.97 1002.08 1001.61 1001.70 1001.45 1000.29 998.52 996.26 994.80 993.45 989.58 987.67 987.68 988.39 988.74 988.84 988.82 988.30 987.99 988.71 989.74 990.47 990.81 991.68 992.11 992.35 992.07 991.92 992.38 992.98 993.29 994.05 995.07 996.20 997.45
1011.49 1010.45 1009.54 1009.02 1008.53 1008.05 1007.75 1006.39 1005.05 1003.70 1002.63 1001.68 1001.49 1000.62 1001.04 1000.47 999.30 998.33 997.98 996.38 993.24 990.09 988.19 987.99 988.40 989.21 988.66 988.62 987.72 987.83 988.52 989.67 990.08 990.66 991.48 991.77 991.57 991.65 991.67 992.06 992.55 993.40 994.50 995.59 996.78
1011.03 1010.77 1010.38 1009.16 1008.46 1007.90 1006.61 1005.82 1005.16 1004.21 1002.21 1001.37 1000.98 1000.37 1000.40 1000.33 999.69 999.19 998.67 997.53 995.74 994.08 991.57 988.53 988.00 988.62 988.40 988.27 987.78 986.76 987.16 988.19 989.16 989.66 990.24 990.42 991.09 991.28 991.16 991.34 991.85 992.74 993.78 994.89 995.97
Wind_Speed
13 13 13 13 13 13 13 14 15 15 15 15 16 16 17 16 21 9 14 13 16 17 4 12 17 19 19 19 19 18 14 16 21 23 14 15 12 9 10 3 12 4 6 9 10
13 13 14 13 13 13 13 14 15 15 15 14 15 16 16 17 12 20 17 18 12 16 12 19 20 20 17 20 17 17 15 23 21 21 16 17 14 15 16 11 13 12 9 11 12
13 14 15 16 15 14 14 15 16 16 16 16 17 17 17 16 13 9 9 10 19 19 21 21 21 21 23 20 22 21 20 22 22 20 18 19 17 17 13 11 8 6 0 15 11
13 12 14 15 16 15 14 15 16 16 17 18 18 18 21 7 8 6 7 6 7 17 18 22 24 25 25 24 23 25 26 24 24 19 19 19 20 17 10 11 10 3 2 13 15
15 15 14 14 14 14 15 16 17 17 16 16 16 15 10 11 17 13 9 7 8 16 22 24 27 27 26 24 24 26 26 24 19 14 23 23 20 17 13 10 5 2 6 6 5
16 16 15 15 15 14 14 16 16 16 16 16 15 15 10 20 14 18 20 10 10 15 22 22 24 25 25 25 28 22 25 23 17 24 23 22 17 14 19 8 3 8 7 11 8
14 16 17 16 16 16 17 17 17 19 21 20 15 9 14 25 11 15 16 20 18 19 19 20 22 27 23 27 24 23 25 22 23 21 21 20 19 16 17 10 14 11 11 10 9
14 14 15 16 16 17 19 19 20 21 23 21 14 10 14 12 21 30 28 25 19 21 19 15 17 21 25 22 24 23 26 22 23 23 25 22 18 13 15 11 16 13 12 13 12
17 16 15 17 17 17 19 20 25 26 22 15 9 12 16 13 26 29 25 26 19 17 13 16 20 20 18 20 20 20 18 25 24 22 24 15 16 16 15 14 13 12 11 11 11
18 17 16 17 17 17 18 23 28 19 13 11 13 13 17 21 20 24 25 25 22 20 21 20 17 19 18 17 21 19 23 22 23 23 18 15 15 16 16 19 10 17 14 12 10
18 17 17 16 15 16 15 13 8 9 14 17 16 20 18 16 20 20 19 22 24 21 22 21 16 22 25 26 25 25 24 24 22 14 10 15 21 15 12 13 18 15 11 8 10
17 18 17 17 17 15 12 11 18 14 14 26 32 28 27 20 14 18 15 20 26 27 24 23 26 26 27 25 27 28 26 24 21 18 14 15 15 13 14 17 20 17 10 8 12
14 15 18 18 17 14 16 24 21 23 13 22 28 35 31 28 27 21 26 23 22 26 29 28 26 27 28 26 26 25 25 20 23 17 16 16 14 13 21 18 15 12 5 1 14
15 12 15 15 12 10 16 19 18 9 10 16 23 28 34 28 38 29 24 23 23 27 30 31 27 29 29 28 26 25 25 25 19 15 12 14 14 13 15 16 11 6 9 10 15
16 15 12 9 16 12 14 19 9 3 10 9 33 13 21 35 9 34 31 27 26 26 23 29 29 29 30 28 27 23 24 22 16 15 16 14 13 14 15 17 7 1 6 13 16
17 14 11 11 13 15 16 14 9 9 17 10 9 26 23 31 35 8 36 31 24 26 28 27 23 30 30 26 26 24 22 16 11 12 14 15 16 14 16 2 4 2 6 13 14
17 15 12 11 14 10 3 8 9 16 11 12 20 24 24 25 32 33 31 33 28 27 28 26 30 30 29 28 23 23 17 10 12 12 12 17 18 16 12 7 1 3 5 12 13
15 12 12 12 14 11 1 6 17 20 35 10 20 24 25 23 28 34 26 27 32 31 15 23 24 33 26 31 25 23 16 13 15 12 17 15 13 4 2 6 4 2 6 11 12
10 9 10 12 15 6 5 14 22 27 19 28 31 30 23 25 21 31 35 29 31 32 25 22 29 24 32 23 25 21 23 18 18 16 13 7 14 10 12 9 9 8 9 11 10
6 5 11 12 13 3 6 18 24 30 37 34 29 19 21 20 27 31 31 31 31 33 24 23 18 28 29 25 24 22 18 17 13 17 15 13 14 6 13 9 11 12 8 10 12
4 3 7 14 9 4 8 19 24 26 33 30 29 28 27 26 25 28 31 27 31 32 31 25 17 19 24 27 22 19 20 18 14 14 12 12 11 15 11 9 11 11 12 12 14
2 4 8 14 6 2 7 22 20 24 26 28 23 20 27 25 22 18 22 31 23 30 34 31 10 16 24 25 26 23 23 18 11 17 12 11 3 10 9 9 6 16 14 14 15
2 4 8 9 6 9 16 23 25 24 25 24 21 21 24 24 14 14 20 24 36 30 29 25 20 14 20 22 25 24 24 20 14 9 14 12 10 11 12 9 9 11 17 14 15
3 4 1 3 3 11 17 21 20 18 25 20 20 21 21 21 21 17 22 17 21 29 30 21 19 22 15 16 21 26 24 22 19 13 14 15 17 13 12 9 9 10 18 17 14
4 4 4 3 6 11 14 19 22 21 21 14 21 19 21 21 23 19 17 20 25 23 24 21 26 22 25 23 27 26 26 25 25 20 19 16 17 11 12 8 10 11 15 17 16
3 4 6 9 9 13 11 12 20 21 21 19 17 18 20 21 22 18 21 19 15 20 12 19 23 24 24 28 25 27 28 26 26 25 22 21 17 13 10 18 14 15 15 14 17
3 4 5 7 8 9 10 11 12 15 15 14 17 19 16 19 23 18 20 21 27 24 21 13 18 21 23 23 25 25 27 26 21 21 22 21 15 13 12 11 9 16 14 14 15
Wind_Direction
346 346 346 343 339 341 344 340 332 335 339 336 334 332 332 326 301 245 245 237 225 175 228 203 217 226 224 232 241 243 256 261 272 284 310 311 323 331 295 210 279 219 176 105 128
340 339 339 336 335 334 337 333 330 333 333 334 330 330 328 323 290 275 253 241 162 162 202 216 212 222 230 233 243 242 247 259 274 288 311 317 312 309 303 237 233 194 158 149 160
323 328 333 331 330 332 333 331 329 328 330 330 331 331 325 314 290 270 0 221 173 172 216 226 226 221 231 239 235 239 252 257 273 292 303 300 298 284 293 299 295 27 328 155 183
305 309 315 320 323 325 327 325 322 323 327 328 328 333 319 277 262 79 78 76 155 187 222 237 234 234 228 236 241 256 253 255 256 280 300 277 281 280 290 289 274 75 25 166 189
294 301 302 301 305 315 318 314 315 315 316 316 322 332 315 236 239 248 125 131 181 206 217 230 237 227 237 241 244 252 261 261 272 277 264 268 264 280 279 291 313 319 229 223 235
306 294 290 291 296 301 298 303 304 304 302 306 315 316 243 253 256 263 258 195 204 209 226 225 238 245 248 246 254 256 260 267 270 257 263 268 263 255 268 253 205 265 248 243 221
318 310 292 291 295 296 298 302 305 304 306 304 310 301 263 244 267 266 282 208 220 197 219 222 233 252 256 250 262 264 266 270 255 254 260 269 262 247 269 230 260 244 231 234 261
315 316 319 304 298 299 300 301 297 292 292 288 280 263 257 256 241 256 264 272 228 235 236 250 245 244 260 273 262 257 261 258 259 252 251 237 251 265 260 215 253 238 243 242 219
320 312 311 311 306 300 297 295 289 284 281 274 229 216 263 244 225 236 237 234 241 222 231 237 232 249 234 248 258 248 250 254 257 250 254 224 237 241 269 280 243 237 252 253 213
313 319 310 306 307 303 301 291 276 280 239 212 250 215 238 249 237 222 224 237 225 238 235 243 227 232 235 223 232 236 239 237 251 260 252 228 243 238 239 249 258 258 244 241 220
309 309 316 311 301 306 309 304 221 196 222 211 198 214 287 228 236 223 217 214 227 236 226 219 225 226 224 225 236 244 249 249 251 238 267 232 240 239 265 283 287 289 284 245 184
302 307 305 308 305 300 288 263 270 327 285 230 252 239 244 272 266 226 215 207 207 219 216 215 224 225 232 230 230 241 251 260 273 283 291 288 271 280 290 269 265 263 271 269 144
286 295 302 306 307 282 249 254 270 289 275 260 236 235 236 235 242 230 211 211 212 211 215 223 221 221 234 227 229 232 244 254 263 276 277 282 270 264 262 263 263 248 213 189 143
289 282 292 307 291 272 260 243 233 263 273 254 215 239 224 223 241 230 225 211 220 216 217 229 225 226 223 233 221 231 232 239 250 270 271 283 292 287 297 277 258 256 203 170 150
290 276 280 273 307 295 340 338 338 213 264 236 213 185 192 199 165 209 217 210 213 211 212 224 222 226 225 219 231 233 236 240 237 244 256 263 269 277 282 283 237 129 232 170 145
295 272 267 262 238 273 286 314 288 227 235 244 224 184 191 198 217 221 196 221 216 224 228 230 234 226 231 231 218 233 236 244 253 261 253 248 254 268 267 29 84 338 105 131 149
294 275 243 263 268 296 340 278 212 230 238 255 188 174 198 193 209 227 187 198 212 208 223 226 228 232 230 228 223 216 225 223 223 235 254 253 248 249 265 307 112 14 96 138 144
288 264 238 246 255 270 343 234 231 227 238 267 224 186 200 217 201 209 190 200 213 207 207 219 220 221 217 229 219 208 203 229 224 225 245 268 239 257 223 147 113 127 73 122 145
286 253 247 238 231 234 192 221 230 247 271 241 283 284 199 217 215 201 218 203 205 206 214 206 229 212 227 208 228 197 212 215 251 262 275 226 230 265 158 173 200 174 135 130 145
277 261 242 221 229 160 215 238 248 251 269 291 293 320 316 227 224 194 201 222 206 206 217 233 216 226 202 216 211 222 194 207 226 242 264 281 277 264 144 196 150 125 141 139 146
262 273 243 219 197 191 222 222 241 260 275 288 289 301 308 302 296 214 209 219 205 203 211 228 250 212 215 204 197 201 228 198 225 223 229 248 268 122 150 163 132 152 140 153 154
145 245 269 171 178 215 239 242 273 276 281 289 289 288 284 299 305 296 233 213 219 203 200 212 226 243 216 201 200 207 216 203 214 220 249 255 297 88 104 133 151 123 142 160 159
239 250 304 157 206 233 247 249 258 268 272 273 277 270 285 305 306 288 267 245 221 190 206 199 226 238 236 208 185 211 217 217 205 221 216 240 240 165 164 179 156 156 141 160 164
331 310 102 218 282 275 261 267 280 285 278 261 262 272 277 274 279 282 294 291 230 218 199 185 220 222 230 211 177 193 216 215 214 209 227 235 251 135 151 171 180 163 148 162 172
215 238 227 234 247 254 301 282 280 279 281 287 248 256 261 279 281 269 337 340 321 286 188 186 212 225 230 238 195 194 204 221 215 214 221 225 245 202 183 185 204 165 153 161 174
284 330 336 292 286 273 247 274 274 274 286 290 286 247 247 261 265 307 317 321 286 341 257 187 209 214 226 229 244 202 201 213 225 215 214 232 236 234 225 191 191 159 160 172 172
309 302 313 294 288 295 276 273 298 301 287 263 259 285 290 272 278 282 304 288 290 290 294 234 205 200 225 222 236 221 199 201 218 228 210 217 223 243 240 210 203 160 165 170 176